Weather in Molodovoye

Russia / Oryol Oblast     52°52′11″N   35°16′56″E
temp.,
°C
wind,
m/s
gust,
m/s
humid.,
%
clouds,
%
prec.,
mm/h
press.,
hPa
HPBL,
m
3 august, tue
tue300:00+18sw59951 0.4 1008218
03:00+16w49959 0.4 1009241
06:00+16w4898100 0.0 1010305
09:00+18wnw458689 0.0 1011563
12:00+20wnw457245 0.1 1013944
15:00+23w565587 0.1 10121832
18:00+21wnw35636 0.0 1012676
21:00+17wnw357524 0.0 101475
4 august, wed
wed400:00+18nnw226299 0.0 101520
03:00+17wnw346521 0.0 1015100
06:00+14wnw34710 0.0 1016113
09:00+19wnw33590 0.0 1017386
12:00+22wnw3444100 0.0 10172262
15:00+22w4542100 0.0 10172137
18:00+21w345785 0.0 1017433
21:00+16nnw11651 0.0 101811
5 august, thu
thu500:00+15se116758 0.0 101811
03:00+15sse2266100 0.0 101819
06:00+15se3567100 0.0 101870
09:00+20sse575799 0.0 1017423
12:00+24sse684680 0.0 10161111
15:00+25s5944100 0.0 10151573
18:00+22s3460100 0.0 101363
21:00+21sse365843 0.0 101294
6 august, fri
fri600:00+18sse41064100 0.0 1012155
03:00+19sse61554100 0.0 1010332
06:00+20sse71859100 0.1 1010508
09:00+21sse71560100 0.4 1008485
12:00+24s61258100 0.0 1009637
15:00+28s594675 0.0 10081298
18:00+26se4952100 0.0 1006189
21:00+20wnw6878100 0.0 1007171
7 august, sat
sat700:00+18nnw239095 0.3 100844
03:00+17s2293100 1.1 100915
06:00+18ene3390100 0.9 100862
09:00+21e3583100 2.3 1008255
12:00+24se2266100 0.0 1008483
15:00+23se3671100 0.0 1008317
18:00+24s4570100 0.3 1008516
21:00+20nw4889100 2.9 1010250